Photometre #859[NE_1.6] Lille AOT

File : 20190925_859.hum

25/09/2019,06:34:21,TEMP=13.6,BA=5.64,STAT.A=5.0,ExtBa=13.68
25/09/2019,06:36:21,TEMP=14.0,BA=5.64,STAT.D=5.0,ExtBa=13.55
25/09/2019,06:38:26,TEMP=14.1,BA=5.64,STAT.A=5.0,ExtBa=13.46
25/09/2019,06:43:14,TEMP=13.9,BA=5.64,STAT.A=5.0,ExtBa=13.45
25/09/2019,06:45:21,TEMP=14.2,BA=5.64,STAT.D=5.0,ExtBa=13.32
25/09/2019,06:48:21,TEMP=14.1,BA=5.64,STAT.D=5.0,ExtBa=13.24
25/09/2019,06:50:15,TEMP=14.4,BA=5.64,STAT.A=5.0,ExtBa=13.17
25/09/2019,06:54:21,TEMP=14.1,BA=5.64,STAT.D=5.0,ExtBa=13.14
25/09/2019,06:56:15,TEMP=14.4,BA=5.64,STAT.A=5.0,ExtBa=13.10
25/09/2019,07:04:25,TEMP=14.0,BA=5.64,STAT.A=5.5,ExtBa=13.25
25/09/2019,07:06:21,TEMP=14.3,BA=5.64,STAT.D=5.0,ExtBa=13.16
25/09/2019,07:15:17,TEMP=14.1,BA=5.64,STAT.B=5.5,ExtBa=13.22
25/09/2019,07:20:30,TEMP=14.3,BA=5.64,STAT.A=5.0,ExtBa=13.27
25/09/2019,07:26:23,TEMP=14.4,BA=5.64,STAT.A=5.5,ExtBa=13.31
25/09/2019,07:33:02,TEMP=14.5,BA=5.64,STAT.A=5.5,ExtBa=13.33
25/09/2019,07:40:39,TEMP=14.6,BA=5.64,STAT.A=5.5,ExtBa=13.38
25/09/2019,07:49:05,TEMP=15.0,BA=5.64,STAT.h
25/09/2019,07:59:26,TEMP=15.0,BA=5.64,STAT.h
25/09/2019,08:00:01,TEMP=15.0,BA=5.64,STAT.h
25/09/2019,08:03:01,TEMP=15.0,BA=5.64,STAT.h
25/09/2019,08:06:01,TEMP=15.0,BA=5.64,STAT.h
25/09/2019,08:09:01,TEMP=15.0,BA=5.64,STAT.h
25/09/2019,08:11:50,TEMP=15.0,BA=5.64,STAT.h
25/09/2019,08:21:01,TEMP=15.0,BA=5.64,STAT.h
25/09/2019,08:24:01,TEMP=15.0,BA=5.64,STAT.h
25/09/2019,08:26:53,TEMP=15.0,BA=5.64,STAT.h
25/09/2019,08:27:01,TEMP=15.0,BA=5.64,STAT.h
25/09/2019,08:30:01,TEMP=15.0,BA=5.64,STAT.h
25/09/2019,08:33:01,TEMP=15.0,BA=5.64,STAT.h
25/09/2019,08:36:01,TEMP=15.0,BA=5.64,STAT.h
25/09/2019,08:39:01,TEMP=15.0,BA=5.64,STAT.h
25/09/2019,08:39:27,TEMP=15.0,BA=5.64,STAT.h
25/09/2019,08:42:01,TEMP=15.0,BA=5.64,STAT.h
25/09/2019,08:45:01,TEMP=15.0,BA=5.64,STAT.h
25/09/2019,08:48:01,TEMP=15.0,BA=5.64,STAT.h
25/09/2019,08:51:01,TEMP=15.0,BA=5.64,STAT.h
25/09/2019,08:54:01,TEMP=15.0,BA=5.64,STAT.h
25/09/2019,08:54:27,TEMP=15.0,BA=5.64,STAT.h
25/09/2019,08:57:01,TEMP=15.0,BA=5.64,STAT.h
25/09/2019,09:00:01,TEMP=15.0,BA=5.64,STAT.h
25/09/2019,09:03:01,TEMP=15.0,BA=5.64,STAT.h
25/09/2019,09:06:01,TEMP=15.0,BA=5.64,STAT.h
25/09/2019,09:09:05,TEMP=15.0,BA=5.64,STAT.h
25/09/2019,09:09:27,TEMP=15.0,BA=5.64,STAT.h
25/09/2019,09:12:15,TEMP=15.0,BA=5.64,STAT.h
25/09/2019,09:24:22,TEMP=14.6,BA=5.64,STAT.D=5.5,ExtBa=13.66
25/09/2019,09:25:05,TEMP=14.6,BA=5.64,STAT.h
25/09/2019,09:25:16,TEMP=14.6,BA=5.64,STAT.h
25/09/2019,09:36:20,TEMP=14.9,BA=5.64,STAT.D=5.5,ExtBa=13.65
25/09/2019,09:39:27,TEMP=15.2,BA=5.64,STAT.h
25/09/2019,09:42:22,TEMP=15.1,BA=5.64,STAT.D=5.5,ExtBa=13.60
25/09/2019,09:48:22,TEMP=15.5,BA=5.64,STAT.D=5.5,ExtBa=13.56
25/09/2019,09:48:35,TEMP=15.5,BA=5.64,STAT.h
25/09/2019,09:54:46,TEMP=15.7,BA=5.64,STAT.D=5.5,ExtBa=13.56
25/09/2019,10:06:22,TEMP=15.8,BA=5.64,STAT.D=5.5,ExtBa=13.60
25/09/2019,10:09:48,TEMP=15.9,BA=5.64,STAT.D=5.5,ExtBa=13.54
25/09/2019,10:21:22,TEMP=15.9,BA=5.64,STAT.D=5.5,ExtBa=13.60
25/09/2019,10:24:48,TEMP=16.1,BA=5.64,STAT.D=5.5,ExtBa=13.54
25/09/2019,10:36:01,TEMP=16.4,BA=5.64,STAT.h
25/09/2019,10:39:22,TEMP=16.0,BA=5.64,STAT.D=5.5,ExtBa=13.60
25/09/2019,10:41:15,TEMP=16.4,BA=5.64,STAT.F,ExtBa=13.47
25/09/2019,10:41:35,TEMP=16.4,BA=5.64,STAT.h
25/09/2019,10:51:22,TEMP=16.0,BA=5.64,STAT.D=5.5,ExtBa=13.57
25/09/2019,10:51:42,TEMP=16.0,BA=5.64,STAT.h
25/09/2019,10:54:48,TEMP=16.1,BA=5.64,STAT.D=5.5,ExtBa=13.55
25/09/2019,10:55:38,TEMP=16.1,BA=5.64,STAT.h
25/09/2019,11:06:01,TEMP=16.1,BA=5.64,STAT.h
25/09/2019,11:09:01,TEMP=16.1,BA=5.64,STAT.h
25/09/2019,11:09:27,TEMP=16.1,BA=5.64,STAT.h
25/09/2019,11:12:01,TEMP=16.1,BA=5.64,STAT.h
25/09/2019,11:15:01,TEMP=16.1,BA=5.64,STAT.h
25/09/2019,11:18:22,TEMP=16.2,BA=5.64,STAT.D=5.5,ExtBa=13.60
25/09/2019,11:24:48,TEMP=16.5,BA=5.64,STAT.D=5.5,ExtBa=13.58
25/09/2019,11:36:01,TEMP=16.9,BA=5.64,STAT.h
25/09/2019,11:39:15,TEMP=16.9,BA=5.64,STAT.h
25/09/2019,11:39:27,TEMP=16.9,BA=5.64,STAT.h
25/09/2019,11:42:01,TEMP=16.9,BA=5.64,STAT.h
25/09/2019,11:45:21,TEMP=17.1,BA=5.64,STAT.D=5.5,ExtBa=13.60
25/09/2019,11:46:41,TEMP=17.1,BA=5.64,STAT.h
25/09/2019,11:54:27,TEMP=17.1,BA=5.64,STAT.h
25/09/2019,11:57:01,TEMP=17.1,BA=5.64,STAT.h
25/09/2019,12:00:01,TEMP=17.1,BA=5.64,STAT.h
25/09/2019,12:03:01,TEMP=17.1,BA=5.64,STAT.h
25/09/2019,12:06:01,TEMP=17.1,BA=5.64,STAT.h
25/09/2019,12:09:01,TEMP=17.1,BA=5.64,STAT.h
25/09/2019,12:09:27,TEMP=17.1,BA=5.64,STAT.h
25/09/2019,12:12:01,TEMP=17.1,BA=5.64,STAT.h
25/09/2019,12:15:01,TEMP=17.1,BA=5.64,STAT.h
25/09/2019,12:18:01,TEMP=17.1,BA=5.64,STAT.h
25/09/2019,12:21:01,TEMP=17.1,BA=5.64,STAT.h
25/09/2019,12:24:01,TEMP=17.1,BA=5.64,STAT.h
25/09/2019,12:24:30,TEMP=17.1,BA=5.64,STAT.h
25/09/2019,12:36:01,TEMP=17.1,BA=5.64,STAT.h
25/09/2019,12:39:01,TEMP=17.1,BA=5.64,STAT.h
25/09/2019,12:39:27,TEMP=17.1,BA=5.64,STAT.h
25/09/2019,12:42:01,TEMP=17.1,BA=5.64,STAT.h
25/09/2019,12:45:01,TEMP=17.1,BA=5.64,STAT.h
25/09/2019,12:48:01,TEMP=17.1,BA=5.64,STAT.h
25/09/2019,12:51:01,TEMP=17.1,BA=5.64,STAT.h
25/09/2019,12:54:01,TEMP=17.1,BA=5.64,STAT.h
25/09/2019,12:54:27,TEMP=17.1,BA=5.64,STAT.h
25/09/2019,12:57:01,TEMP=17.1,BA=5.64,STAT.h
25/09/2019,13:00:01,TEMP=17.1,BA=5.64,STAT.h
25/09/2019,13:03:01,TEMP=17.1,BA=5.64,STAT.h
25/09/2019,13:06:01,TEMP=17.1,BA=5.64,STAT.h
25/09/2019,13:09:01,TEMP=17.1,BA=5.64,STAT.h
25/09/2019,13:09:27,TEMP=17.1,BA=5.64,STAT.h
25/09/2019,13:12:01,TEMP=17.1,BA=5.64,STAT.h
25/09/2019,13:15:01,TEMP=17.1,BA=5.64,STAT.h
25/09/2019,13:18:01,TEMP=17.1,BA=5.64,STAT.h
25/09/2019,13:21:01,TEMP=17.1,BA=5.64,STAT.h
25/09/2019,13:24:01,TEMP=17.1,BA=5.64,STAT.h
25/09/2019,13:24:27,TEMP=17.1,BA=5.64,STAT.h
25/09/2019,13:27:01,TEMP=17.1,BA=5.64,STAT.h
25/09/2019,13:30:01,TEMP=17.1,BA=5.64,STAT.h
25/09/2019,13:33:01,TEMP=17.1,BA=5.64,STAT.h
25/09/2019,13:36:01,TEMP=17.1,BA=5.64,STAT.h
25/09/2019,13:39:01,TEMP=17.1,BA=5.64,STAT.h
25/09/2019,13:39:27,TEMP=17.1,BA=5.64,STAT.h
25/09/2019,13:42:01,TEMP=17.1,BA=5.64,STAT.h
25/09/2019,13:45:22,TEMP=16.4,BA=5.64,STAT.D=5.5,ExtBa=13.60
25/09/2019,13:46:30,TEMP=16.4,BA=5.64,STAT.h
25/09/2019,13:54:27,TEMP=16.4,BA=5.64,STAT.h
25/09/2019,13:57:01,TEMP=16.4,BA=5.64,STAT.h
25/09/2019,14:00:01,TEMP=16.4,BA=5.64,STAT.h
25/09/2019,14:03:01,TEMP=16.4,BA=5.64,STAT.h
25/09/2019,14:06:01,TEMP=16.4,BA=5.64,STAT.h
25/09/2019,14:09:21,TEMP=16.4,BA=5.64,STAT.D=5.5,ExtBa=13.61
25/09/2019,14:10:11,TEMP=16.4,BA=5.64,STAT.h
25/09/2019,14:10:23,TEMP=16.4,BA=5.64,STAT.h
25/09/2019,14:21:01,TEMP=16.4,BA=5.64,STAT.h
25/09/2019,14:24:21,TEMP=16.9,BA=5.64,STAT.D=5.5,ExtBa=13.60
25/09/2019,14:25:35,TEMP=16.9,BA=5.64,STAT.h
25/09/2019,14:25:46,TEMP=16.9,BA=5.64,STAT.h
25/09/2019,14:36:01,TEMP=16.9,BA=5.64,STAT.h
25/09/2019,14:39:01,TEMP=16.9,BA=5.64,STAT.h
25/09/2019,14:39:27,TEMP=16.9,BA=5.64,STAT.h
25/09/2019,14:42:01,TEMP=16.9,BA=5.64,STAT.h
25/09/2019,14:45:01,TEMP=16.9,BA=5.64,STAT.h
25/09/2019,14:48:01,TEMP=16.9,BA=5.64,STAT.h
25/09/2019,14:51:20,TEMP=16.7,BA=5.64,STAT.D=5.5,ExtBa=13.61
25/09/2019,14:53:14,TEMP=17.1,BA=5.64,STAT.A=5.5,ExtBa=13.52
25/09/2019,15:06:01,TEMP=17.3,BA=5.64,STAT.h
25/09/2019,15:07:07,TEMP=17.3,BA=5.64,STAT.h
25/09/2019,15:09:01,TEMP=17.3,BA=5.64,STAT.h
25/09/2019,15:12:21,TEMP=16.5,BA=5.64,STAT.D=5.5,ExtBa=13.62
25/09/2019,15:13:11,TEMP=16.5,BA=5.64,STAT.h
25/09/2019,15:19:28,TEMP=16.5,BA=5.64,STAT.h
25/09/2019,15:21:01,TEMP=16.5,BA=5.64,STAT.h
25/09/2019,15:24:01,TEMP=16.5,BA=5.64,STAT.h
25/09/2019,15:27:01,TEMP=16.5,BA=5.64,STAT.h
25/09/2019,15:29:49,TEMP=16.5,BA=5.64,STAT.h
25/09/2019,15:30:01,TEMP=16.5,BA=5.64,STAT.h
25/09/2019,15:33:21,TEMP=16.0,BA=5.64,STAT.D=5.5,ExtBa=13.61
25/09/2019,15:38:37,TEMP=16.3,BA=5.64,STAT.h
25/09/2019,15:39:01,TEMP=16.3,BA=5.64,STAT.h
25/09/2019,15:42:01,TEMP=16.3,BA=5.64,STAT.h
25/09/2019,15:45:01,TEMP=16.3,BA=5.64,STAT.h
25/09/2019,15:46:35,TEMP=16.0,BA=5.64,STAT.A=5.5,ExtBa=13.62
25/09/2019,15:53:15,TEMP=16.1,BA=5.64,STAT.A=5.5,ExtBa=13.60
25/09/2019,15:59:06,TEMP=16.2,BA=5.64,STAT.A=5.5,ExtBa=13.60
25/09/2019,16:04:19,TEMP=16.3,BA=5.64,STAT.B=5.5,ExtBa=13.59
25/09/2019,16:15:11,TEMP=16.4,BA=5.64,STAT.A=5.5,ExtBa=13.60
25/09/2019,16:23:44,TEMP=16.5,BA=5.64,STAT.A=5.5,ExtBa=13.60
25/09/2019,16:30:18,TEMP=16.9,BA=5.64,STAT.h
25/09/2019,16:33:21,TEMP=16.6,BA=5.64,STAT.D=5.5,ExtBa=13.59
25/09/2019,16:36:01,TEMP=16.8,BA=5.64,STAT.h
25/09/2019,16:39:01,TEMP=16.8,BA=5.64,STAT.h
25/09/2019,16:40:49,TEMP=16.8,BA=5.64,STAT.h
25/09/2019,16:42:01,TEMP=16.8,BA=5.64,STAT.h
25/09/2019,16:44:27,TEMP=16.8,BA=5.64,STAT.h
25/09/2019,16:44:54,TEMP=16.8,BA=5.64,STAT.h